SCP
0 0 0 0 0 0 0 0 0 0 0 0 0 0 0 0 0 0 0 0 1 1 1 1 1 0 0 0 0 0 0 1 1 0 0 0 0 0 0 0 0 0 0
0 0 0 0 0 0 0 0 0 0 0 0 0 0 0 0 0 0 0 0 0 1 1 1 1 1 0 0 0 0 0 1 1 0 0 0 0 0 0 0 0 0 0
0 0 0 0 0 0 0 0 0 0 0 0 0 0 0 0 0 0 0 0 0 0 1 1 1 1 1 1 1 1 1 1 1 0 0 0 0 0 0 0 0 0 0
0 0 0 0 0 0 0 0 0 0 0 0 0 0 0 0 0 0 0 0 0 0 1 1 1 1 1 1 1 1 1 1 1 0 0 0 0 0 0 0 0 0 0
1 1 1 1 1 0 0 0 0 1 0 0 0 0 0 0 0 0 0 0 0 0 0 0 1 1 1 1 1 1 1 1 1 0 0 0 0 1 1 1 0 0 0
1 1 1 1 1 1 0 0 0 0 0 0 0 0 0 0 0 0 0 0 0 0 0 0 1 1 1 1 1 1 1 1 0 0 0 0 0 1 1 1 1 0 0
1 1 1 1 1 1 0 0 0 0 0 0 0 0 0 0 0 0 0 0 1 0 0 0 0 1 1 1 1 0 0 0 0 0 0 0 0 0 0 1 1 1 1
1 0 0 1 1 1 0 0 0 0 0 0 0 0 0 0 0 1 1 1 1 0 0 0 0 0 1 1 0 0 0 0 0 0 0 0 0 0 0 0 1 1 1
0 0 0 0 0 0 0 0 0 0 0 0 0 0 0 0 1 1 1 1 1 1 0 0 0 0 0 0 0 0 0 0 0 0 0 0 0 0 0 0 1 1 1
0 0 0 0 0 0 0 0 0 0 0 0 0 0 0 0 1 1 1 1 0 0 0 0 0 0 0 0 0 0 0 0 0 0 0 0 0 0 0 0 1 1 1
1 0 0 0 0 0 0 0 0 0 0 0 0 0 0 0 0 0 1 1 0 0 0 0 0 0 0 0 0 0 0 0 0 0 0 0 0 0 0 1 1 1 1
1 0 0 0 0 0 0 0 0 0 0 0 0 0 0 0 0 0 0 0 0 0 0 0 0 0 0 0 0 0 0 0 0 0 0 0 0 0 0 0 1 1 1
1 0 0 0 0 0 0 0 0 0 0 0 0 0 0 0 0 0 0 0 0 0 0 0 0 0 0 0 0 0 0 0 0 0 0 0 0 0 0 0 0 0 1
1 0 0 0 0 0 0 0 0 0 0 0 0 0 0 0 0 0 0 0 0 0 0 0 0 0 0 0 0 0 0 0 0 0 0 0 0 0 0 0 0 0 0
0 0 0 0 0 0 0 0 0 0 0 0 0 0 0 0 0 0 0 0 0 0 0 0 0 0 0 0 0 0 0 0 0 0 0 0 0 0 0 0 0 0 1
0 0 0 0 0 0 0 0 0 0 0 0 0 0 0 0 0 0 0 0 0 0 0 0 0 0 0 0 0 0 0 0 0 0 0 0 0 0 0 0 0 1 1
0 0 0 0 0 0 0 0 0 0 0 0 0 0 0 0 0 0 0 0 0 0 0 0 0 0 0 0 0 0 0 0 0 0 0 0 0 0 0 0 0 1 1
0 0 0 0 0 0 0 0 0 0 0 0 0 0 0 0 0 0 0 0 0 0 0 0 0 0 0 0 0 0 0 0 0 0 0 0 0 0 0 0 0 0 1
1 0 0 0 0 0 0 0 0 0 0 0 0 0 0 0 0 0 0 0 0 0 0 0 0 0 0 0 0 0 0 0 0 0 0 0 0 0 0 0 0 0 0
1 1 0 0 0 0 0 0 0 0 0 0 0 0 0 0 0 0 0 0 0 0 0 0 0 0 0 0 0 0 0 0 0 0 0 0 0 0 0 0 0 0 0
1 1 0 0 0 0 0 0 0 0 0 0 0 0 0 0 0 0 0 0 0 0 0 0 0 0 0 0 0 0 0 0 0 0 0 0 0 0 0 0 0 0 0
1 1 0 0 0 0 0 0 0 0 0 0 0 0 0 0 0 0 0 0 0 0 0 0 0 0 0 0 0 0 0 0 0 0 0 0 0 0 0 0 0 0 0
1 1 0 0 0 0 0 0 0 0 0 0 0 0 0 0 0 0 0 0 0 0 0 0 0 0 0 0 0 0 0 0 0 0 0 0 0 0 0 0 0 0 0
1 1 0 0 0 0 0 0 0 0 0 0 0 0 0 0 0 0 0 0 0 0 0 0 0 0 0 0 0 0 0 0 0 0 0 0 0 0 0 0 0 0 0
1 1 0 0 0 0 0 0 0 0 0 0 0 0 0 0 0 0 0 0 0 0 0 0 0 0 0 0 0 0 0 0 0 0 0 0 0 0 0 0 0 0 0
1 1 1 0 0 0 0 0 0 0 0 0 0 0 0 0 0 0 0 0 0 0 0 0 0 0 0 0 0 0 0 0 0 0 0 0 0 0 0 0 0 0 0
Wind_Speed
0 1 1 5 7 8 8 9 9 10 10 11 11 11 12 12 11 11 11 10 10 10 10 10 10 10 10 10 10 10 10 10 10 10 9 8 8 8 8 8 8 5 8
2 1 3 6 7 8 8 8 9 10 10 11 11 11 11 11 11 10 10 10 10 10 10 10 10 10 10 10 9 9 9 10 10 10 10 8 8 8 8 8 8 5 8
2 2 4 6 7 8 8 8 9 9 10 10 11 11 11 11 10 10 9 9 9 10 10 10 10 10 9 9 9 9 9 10 10 10 9 5 5 8 8 8 8 8 8
3 2 4 7 7 7 7 8 9 9 10 10 10 10 10 10 10 9 9 9 9 9 9 9 10 10 9 9 10 10 10 10 10 10 6 5 4 8 8 8 8 8 8
3 3 4 7 7 7 7 8 9 9 10 10 10 10 9 9 9 9 8 8 8 9 9 9 9 9 9 10 10 10 10 11 11 9 5 5 4 7 8 8 7 7 7
3 3 4 7 7 8 8 8 9 9 9 10 10 9 9 9 8 8 8 8 8 8 9 9 9 9 10 10 10 10 11 10 9 5 5 4 3 7 8 7 7 7 7
3 3 3 6 7 7 7 8 8 9 9 9 9 9 8 8 8 8 8 8 8 8 8 9 9 9 10 10 10 10 10 10 6 5 4 4 4 7 8 7 7 7 7
4 3 3 5 6 6 7 7 8 8 8 8 8 8 8 8 8 8 8 8 8 8 8 9 8 9 10 10 10 10 10 8 6 5 4 3 5 8 8 8 7 8 7
4 4 3 3 3 4 6 6 6 7 7 7 8 8 7 7 7 7 8 8 8 8 9 9 8 9 9 10 10 10 10 10 5 3 4 3 6 7 8 8 8 8 8
3 3 3 3 3 3 2 4 5 6 6 6 6 6 7 7 7 7 7 7 8 8 8 8 9 9 10 10 10 10 10 8 5 4 3 3 7 7 8 8 8 8 8
2 2 2 2 2 2 2 3 3 4 5 5 4 5 5 3 3 4 5 6 7 8 8 9 9 10 10 10 11 11 8 4 4 3 3 6 8 8 8 8 8 8 8
1 1 1 2 2 2 2 3 2 3 3 3 2 3 3 2 2 4 5 7 8 9 9 10 10 9 7 4 7 8 4 5 4 3 4 8 8 9 9 8 8 8 8
2 1 1 1 1 1 1 2 1 2 2 2 2 2 2 2 2 3 3 4 5 6 5 6 6 4 4 3 3 4 4 4 3 3 5 9 9 9 9 9 9 9 9
2 1 1 1 1 1 1 1 1 1 1 1 1 1 2 2 2 2 2 2 2 2 3 3 3 4 4 4 4 4 5 3 3 3 5 10 10 10 9 9 9 9 9
2 2 1 2 2 1 1 0 1 1 1 0 1 1 2 1 1 1 1 2 2 2 3 3 3 4 4 4 4 4 4 4 4 4 4 10 11 10 10 10 9 9 9
3 2 2 2 2 2 1 1 1 1 1 1 1 1 1 2 2 2 2 2 2 2 2 3 3 3 3 3 4 4 4 4 4 4 4 6 11 11 11 10 10 9 9
3 3 2 2 2 2 2 1 1 1 1 1 1 1 1 2 2 2 2 2 2 2 3 3 4 3 3 4 4 4 3 4 4 4 4 4 5 10 11 11 10 10 9
4 3 3 2 2 2 2 1 1 1 1 1 1 1 2 2 3 3 2 2 2 2 3 3 3 3 3 3 3 3 3 3 4 4 4 4 4 4 7 11 11 11 10
5 4 3 2 3 2 2 2 2 2 2 1 1 1 1 2 3 3 2 2 2 3 2 3 3 3 3 3 3 3 3 3 3 4 4 5 4 4 4 7 11 12 11
4 4 4 3 2 3 3 2 2 2 2 1 1 1 2 2 3 3 2 3 3 3 2 3 3 3 2 2 4 4 3 3 3 3 4 3 4 4 4 5 5 7 11
5 4 4 4 3 3 2 2 2 1 1 1 1 1 2 2 2 3 3 3 3 3 3 3 3 3 2 2 3 3 3 3 4 3 3 3 3 3 4 4 4 4 4
5 5 4 4 4 3 2 2 2 2 1 0 1 1 1 2 2 3 4 3 3 3 3 3 3 2 1 1 2 2 2 3 4 4 3 3 3 3 4 4 4 4 4
5 6 5 5 4 4 3 3 2 2 2 2 1 1 1 1 2 2 3 3 3 3 3 2 3 4 3 1 1 3 3 1 1 3 4 4 3 3 3 3 4 4 4
6 5 5 5 4 4 4 4 4 3 2 2 1 0 1 1 2 3 3 3 3 2 3 2 2 2 3 2 1 1 1 3 2 1 3 3 4 4 3 3 3 4 4
5 5 5 5 4 4 4 5 4 3 2 1 1 1 1 1 1 2 3 3 3 2 2 2 2 2 2 3 2 1 2 2 2 2 0 2 3 3 3 3 3 3 3
4 5 5 5 4 4 4 4 5 5 4 3 2 2 1 1 1 1 2 2 2 2 2 2 2 3 2 2 2 2 2 2 2 2 2 0 1 2 3 3 3 2 2
Wind_Direction
275 283 135 108 109 110 108 107 107 106 105 104 104 107 107 103 100 96 92 89 85 82 78 78 80 79 76 76 76 74 73 73 72 71 70 72 76 78 81 85 83 80 88
169 198 132 113 114 115 112 110 111 110 107 104 104 107 106 103 99 97 93 90 86 83 78 77 77 76 73 72 72 73 73 72 69 66 62 60 69 76 78 83 85 82 84
121 125 125 120 117 115 112 109 110 110 107 106 105 106 105 103 100 97 93 90 86 83 79 77 76 75 72 71 71 74 75 71 68 64 57 42 56 77 79 80 81 82 81
118 111 117 116 115 114 112 112 112 110 107 107 106 106 105 104 101 96 93 90 87 84 79 76 75 72 71 73 74 75 74 70 67 63 47 37 43 74 75 77 78 77 77
102 102 122 123 119 116 114 113 112 111 110 110 108 106 103 100 98 95 92 89 86 83 79 75 74 71 72 76 75 74 72 69 66 57 46 39 38 69 72 69 72 72 74
100 97 125 127 124 119 117 114 111 111 110 109 107 103 99 97 93 89 89 88 86 82 79 76 73 71 73 76 77 75 73 70 62 51 44 38 38 66 69 65 67 70 71
101 92 115 124 126 123 121 117 116 114 111 109 107 102 98 94 89 85 84 86 84 81 80 76 73 72 75 76 76 75 73 70 64 50 41 34 48 65 67 63 64 65 67
102 90 92 121 129 123 121 122 119 117 115 110 105 98 91 87 83 83 84 83 80 79 79 76 73 75 76 74 72 71 72 68 62 50 39 31 56 65 66 63 63 64 63
89 81 62 56 79 103 112 117 118 117 112 108 104 98 89 82 78 78 80 81 79 78 76 74 73 75 74 74 73 71 70 66 57 39 42 35 56 64 66 64 63 65 64
82 76 64 54 49 51 68 104 109 112 106 101 100 92 81 71 64 62 63 74 79 78 75 73 71 72 74 72 69 68 65 59 49 37 25 38 54 61 64 65 65 64 64
95 75 72 67 55 47 47 70 74 82 74 69 70 71 66 51 43 44 47 67 71 72 69 67 70 73 72 66 64 63 56 47 45 34 22 46 54 58 61 62 61 57 61
154 109 80 81 72 54 48 55 47 47 50 48 50 56 54 46 34 44 43 58 62 62 61 63 65 67 64 54 55 56 47 42 41 30 35 46 50 56 58 59 61 59 58
167 147 127 129 96 70 49 64 53 45 45 43 50 60 63 52 37 43 45 44 48 54 49 51 53 52 59 58 54 51 46 44 37 27 31 43 48 53 56 58 60 58 54
141 168 164 144 126 103 81 86 97 85 75 72 62 87 88 67 47 43 52 51 51 56 57 52 58 59 63 60 60 57 50 46 39 27 31 43 48 53 54 55 54 52 50
161 186 184 161 154 142 119 130 109 107 106 98 86 121 127 106 88 76 62 59 61 67 72 67 68 69 64 57 59 62 56 49 43 36 24 39 43 47 51 52 49 50 48
181 189 184 166 154 144 152 156 132 126 120 91 85 126 131 124 121 105 80 67 68 76 80 81 79 76 66 63 57 53 52 48 44 39 30 29 38 42 44 45 45 47 49
185 176 172 171 143 144 152 158 141 138 125 115 108 118 127 128 124 114 102 87 84 89 90 85 79 73 73 68 56 48 48 46 46 38 33 28 24 34 38 40 40 42 44
176 169 175 171 149 151 138 125 112 110 108 104 96 106 125 129 123 112 110 105 104 96 95 97 90 80 69 65 58 44 42 42 42 40 38 34 28 26 30 36 37 37 39
180 173 170 158 158 151 125 103 90 85 84 82 88 100 115 123 123 118 115 113 111 100 98 108 89 95 90 78 72 52 39 40 35 43 41 38 38 37 30 30 33 33 35
175 170 167 158 150 129 108 90 74 68 64 65 77 87 104 119 121 115 112 113 113 104 94 98 101 85 87 87 76 58 37 34 41 39 36 36 38 39 36 34 27 23 31
165 164 167 165 154 130 117 119 113 108 84 62 63 75 99 113 118 118 120 116 115 118 122 121 111 96 76 81 80 47 24 34 45 35 30 35 34 34 40 36 31 25 20
172 168 171 173 166 162 152 144 137 133 125 103 44 63 90 125 135 138 134 132 126 119 115 126 127 117 99 80 116 97 26 5 18 24 22 34 30 29 34 36 31 27 24
178 179 184 182 176 170 148 119 95 75 60 51 39 30 37 118 133 131 133 130 134 133 141 152 147 140 142 74 82 135 135 187 345 357 16 27 24 28 20 24 30 26 27
193 184 179 176 176 174 158 151 147 148 157 184 177 168 79 100 120 123 129 127 132 133 143 155 139 141 138 141 72 58 114 148 140 26 352 4 21 28 20 22 24 26 26
189 180 178 170 174 175 170 164 154 146 157 137 113 109 87 71 99 122 132 128 132 134 141 136 128 132 135 146 146 124 90 70 95 133 11 339 2 8 18 20 21 21 21
180 175 170 170 177 176 170 166 166 160 154 144 144 139 128 80 72 109 126 127 134 139 145 144 137 135 133 130 129 134 146 143 149 137 152 232 346 337 4 16 17 8 16